Погода в Верхних Песках

Россия / Курганская область     56°10′53″N   62°36′04″E
темп.,
°C
ветер,
м/с
пор.,
м/с
влажн.,
%
обл.,
%
осадки,
мм/ч
давл.,
гПа
погр.,
м
18 мая, вт
вт1823:00+16юз3781100 2.0 1016235
02:00+16з81290100 3.3 1015273
05:00+16зюз71585100 6.9 1014402
08:00+20зюз696915 0.1 1013434
11:00+25ссз46440 0.1 10131616
14:00+26ссз6633100 0.0 10133001
17:00+22ссв7950100 0.0 10151255
20:00+17ссв7116477 0.2 1018937
19 мая, ср
ср1923:00+14св61063100 0.2 1020826
02:00+11св510755 0.0 1022548
05:00+12св5765100 0.0 10231040
08:00+13св456066 0.0 10241176
11:00+17св56475 0.0 10241446
14:00+19св4540100 0.0 10241625
17:00+20св453874 0.0 10231701
20:00+17св335074 0.0 102344
20 мая, чт
чт2023:00+14св2251100 0.0 102413
02:00+12юв11575 0.0 102410
05:00+11юз22635 0.0 102511
08:00+16з235084 0.0 1025304
11:00+20зюз3339100 0.0 10231115
14:00+23зюз3433100 0.0 10221452
17:00+24зюз34315 0.0 10211559
20:00+20юз46485 0.0 102085
21 мая, пт
пт2123:00+16юз45490 0.0 102058
02:00+15зюз46540 0.0 102188
05:00+14зюз34610 0.0 102157
08:00+20юз23470 0.0 1021209
11:00+24юз44340 0.0 1021977
14:00+26ююз45280 0.0 10201826
17:00+26ююз45280 0.0 10191968
20:00+22ю33460 0.0 101829
22 мая, сб
сб2223:00+18ю34480 0.0 101947
02:00+16ю35470 0.0 101870
05:00+14ю36525 0.0 101889
08:00+20юз47535 0.0 1018342
11:00+24юз46445 0.0 10171394
14:00+25юз573795 0.0 10172844
17:00+26зюз673157 0.0 10162671
20:00+22з59531 0.0 1017269